Probability
30 29 26 24 24 23 20 18 16 13 11 11 12 12 12 13 14 15 16 19 21 20 18 18 19 19 19 20 20 18 16 16 11 7 5 6 6 6 6 6 5 6 7
29 29 29 29 27 24 21 20 19 16 13 12 12 12 13 14 16 18 19 22 25 23 20 21 21 20 21 23 23 19 17 16 13 9 7 8 8 7 8 8 6 5 6
27 29 31 31 29 25 22 22 23 20 16 12 10 11 13 15 17 19 22 27 30 29 26 26 26 24 24 26 26 23 21 19 17 13 9 10 11 10 10 8 7 7 6
27 28 29 29 28 25 24 24 24 22 18 13 11 11 12 14 16 19 23 27 31 33 32 32 32 28 25 26 27 26 25 23 20 15 10 10 12 12 11 10 9 9 10
31 29 28 28 26 24 24 25 25 23 20 18 18 16 14 14 15 18 21 24 29 31 31 32 32 28 22 20 21 22 24 24 23 17 13 13 14 13 12 11 11 10 11
36 33 31 30 28 27 26 26 24 22 20 21 23 23 20 16 13 13 16 21 25 25 25 26 27 25 19 15 12 12 15 19 21 20 19 18 17 14 12 12 11 10 9
39 38 36 34 32 30 30 28 24 21 20 22 24 26 24 17 10 8 10 16 20 20 21 22 22 23 22 18 13 9 9 11 14 18 21 21 20 18 15 13 11 10 9
42 42 40 37 34 32 32 30 26 22 21 22 25 28 26 18 9 6 7 12 16 18 19 19 19 20 22 22 20 16 14 12 10 11 15 17 17 17 17 13 10 9 8
43 42 41 40 37 34 32 32 29 25 24 25 27 28 26 18 9 5 6 11 17 20 19 16 15 15 16 18 20 21 20 17 11 6 7 9 10 10 11 10 8 6 5
39 38 39 41 39 36 34 33 32 31 30 29 28 26 23 18 11 6 6 12 19 22 20 15 11 10 9 11 15 19 20 20 15 9 6 6 7 6 6 7 6 5 4
30 32 35 37 36 34 34 34 33 33 32 30 28 25 22 17 12 7 7 11 18 21 20 15 11 7 4 4 9 13 15 16 16 14 11 9 8 8 8 7 7 7 6
25 26 28 29 28 28 30 31 31 30 28 27 26 24 22 18 13 8 6 7 12 17 17 15 12 6 2 1 3 6 7 10 14 15 13 11 10 10 11 10 9 8 7
26 23 21 21 21 23 26 27 27 26 24 24 24 23 20 18 15 11 7 4 5 10 13 12 9 5 2 1 1 2 3 7 12 13 12 11 10 10 11 12 11 9 7
27 24 21 19 18 20 22 22 22 23 23 23 22 19 17 16 15 14 12 8 5 6 9 8 6 4 3 3 2 2 3 6 9 10 9 9 9 9 9 11 12 10 8
28 26 23 19 17 17 17 17 17 19 20 20 18 15 13 12 13 14 14 12 7 5 6 7 7 7 7 6 5 4 4 5 6 6 6 7 8 7 7 9 11 10 8
24 23 23 20 17 15 14 13 13 13 13 13 11 9 8 8 8 8 8 8 5 3 5 9 11 10 9 9 8 6 5 5 5 5 6 7 7 7 7 7 9 8 7
19 20 22 21 17 14 12 12 12 10 9 7 6 4 4 4 4 3 2 2 1 1 3 7 10 10 9 9 9 8 8 7 7 6 6 6 6 7 7 7 6 5 5
17 18 21 21 18 15 13 12 12 11 11 9 7 3 2 1 1 0 0 0 0 1 2 5 7 8 8 7 8 8 9 9 9 8 6 5 5 5 7 7 5 4 4
17 16 17 19 18 16 13 12 12 14 14 13 10 6 3 2 1 1 0 1 2 2 2 3 4 6 7 6 7 8 9 9 9 9 8 7 5 4 5 5 4 4 4
13 11 12 14 15 14 12 10 12 14 14 14 12 9 7 6 5 3 2 2 3 3 3 3 3 6 7 7 8 9 9 9 9 9 9 8 6 4 4 4 3 3 3
7 6 7 9 10 10 10 10 10 11 12 12 12 10 8 7 7 5 3 3 3 3 4 4 5 6 7 8 9 9 8 8 9 8 8 6 5 4 3 3 3 3 3
4 4 4 5 6 7 8 9 10 10 9 9 10 8 6 6 6 5 4 3 3 3 3 4 5 5 7 8 9 8 7 7 7 7 7 5 4 3 3 3 3 3 3
3 3 3 3 4 4 6 8 9 9 7 7 8 7 5 4 5 4 3 3 3 3 3 4 4 4 5 6 7 7 6 5 6 6 6 6 5 4 3 3 3 3 3
3 2 2 3 3 3 5 7 8 7 7 6 7 8 6 4 4 3 3 3 3 4 4 4 5 4 3 4 4 5 4 4 5 6 6 5 4 3 3 3 3 3 3
3 3 2 2 3 3 4 5 6 6 6 7 8 8 6 4 3 3 3 3 4 5 5 5 5 3 2 2 3 3 3 3 3 4 5 4 3 3 3 3 3 3 3
3 3 2 1 2 3 4 4 5 6 6 7 8 8 6 4 3 3 3 3 4 5 5 5 4 3 2 1 1 1 1 1 1 2 3 4 3 3 3 3 3 3 3
Wind_Speed
8 8 6 6 6 6 5 5 5 5 5 6 6 6 6 6 6 5 6 6 7 6 6 6 6 5 4 4 4 4 4 4 5 3 2 2 3 3 2 3 3 3 3
8 8 7 6 6 6 6 5 5 5 6 6 6 6 7 6 6 6 7 7 7 7 7 7 7 5 6 5 4 5 4 4 5 5 3 3 4 4 3 4 3 2 2
7 7 7 7 6 6 5 5 5 5 5 5 6 6 6 6 7 7 7 7 7 7 7 7 7 6 6 5 5 5 4 5 5 5 4 3 3 3 4 4 3 2 3
7 7 7 6 6 5 5 5 5 5 5 5 6 6 6 7 7 7 7 7 7 6 6 7 7 7 7 6 5 6 5 5 5 5 5 4 4 4 4 4 4 3 3
7 7 6 6 5 5 5 5 5 5 5 5 6 6 6 7 6 6 7 7 7 6 6 6 6 5 3 4 4 5 5 5 5 6 5 5 4 3 4 4 4 3 3
6 6 5 5 5 5 5 5 5 5 5 5 6 6 6 5 2 3 6 6 6 6 6 5 5 6 5 4 2 2 3 5 6 5 5 5 5 5 4 4 4 4 3
6 5 5 5 5 5 5 4 5 5 5 5 6 6 5 3 3 4 6 6 6 5 6 6 5 4 6 6 7 7 6 5 6 7 6 6 5 4 4 5 4 5 4
5 5 5 5 5 4 4 4 4 4 4 4 5 5 5 4 4 6 6 7 6 6 6 6 6 6 5 5 6 7 7 7 8 8 6 5 4 3 5 6 5 6 5
4 4 4 4 4 4 4 4 4 4 4 5 5 5 6 5 5 6 7 6 6 6 6 5 5 6 3 4 7 7 7 6 6 4 3 3 2 2 3 5 5 6 5
3 3 3 3 3 4 4 4 4 5 6 5 5 5 6 6 4 6 8 6 6 5 5 5 5 5 4 5 7 7 8 6 5 5 6 7 7 6 6 6 5 5 4
2 2 2 3 4 4 4 4 4 5 5 5 5 6 6 6 5 6 7 6 5 5 4 4 3 6 6 6 7 6 4 4 5 5 5 5 5 5 6 5 4 4 4
1 2 2 3 4 3 3 3 4 4 5 5 5 6 5 5 4 6 7 7 5 5 4 4 2 6 5 6 5 3 3 5 5 5 5 5 5 4 4 4 4 4 4
2 2 3 3 3 3 3 4 4 4 5 4 4 4 4 3 3 5 7 7 7 5 3 1 3 5 6 6 6 6 7 6 5 5 5 5 4 3 4 4 6 6 5
2 3 3 4 4 3 3 4 3 3 4 4 4 4 3 3 3 3 4 5 6 5 3 3 5 6 6 4 5 6 6 4 4 5 4 3 3 4 4 4 4 5 5
3 4 4 4 3 3 3 3 4 3 3 4 4 4 4 4 2 1 2 3 3 2 2 3 4 4 4 4 4 4 4 4 5 5 5 4 4 4 4 4 4 4 5
3 3 3 3 3 3 3 3 1 3 1 2 3 4 3 1 2 2 3 3 3 4 4 4 4 4 4 4 4 4 3 3 3 4 4 4 4 4 4 4 4 4 4
4 4 3 3 3 3 3 3 3 2 2 1 1 2 2 2 2 3 3 3 3 5 4 3 3 3 3 3 3 3 3 3 3 3 4 3 4 4 4 4 4 4 4
5 3 4 3 3 2 3 3 3 3 2 1 2 2 3 4 4 4 4 4 2 4 4 3 3 3 3 3 3 3 3 3 3 3 3 3 3 4 4 4 4 5 5
4 3 3 3 3 2 2 3 2 2 2 1 1 2 3 4 4 4 5 3 3 3 3 3 3 3 3 3 2 3 3 3 3 3 3 3 3 4 4 4 4 4 5
3 2 3 3 3 2 2 2 2 2 2 1 1 1 2 3 2 2 3 3 2 2 3 3 2 2 2 2 2 3 3 3 4 4 3 3 4 4 4 5 4 4 5
2 1 1 3 2 2 2 2 2 2 1 1 1 0 1 2 2 2 2 2 2 1 2 2 2 2 2 2 2 3 3 3 3 3 3 3 3 4 4 4 4 5 4
2 2 2 1 2 2 2 2 2 2 2 1 1 1 2 2 1 1 1 1 1 1 1 2 2 1 1 2 2 2 3 3 3 3 3 3 3 4 4 4 3 3 4
2 2 2 1 1 1 2 2 2 1 1 1 1 0 1 1 1 1 1 1 1 1 1 1 1 1 1 1 1 2 3 3 2 3 4 3 3 3 3 4 5 5 4
2 1 1 1 1 2 2 1 1 1 1 0 0 0 0 0 0 0 0 1 1 1 1 1 1 1 0 1 1 2 1 2 3 3 4 4 4 3 3 3 4 4 4
1 1 1 1 1 1 1 1 1 0 0 0 0 0 0 0 1 1 1 1 1 1 1 1 1 1 1 1 2 1 3 3 3 4 3 3 3 3 3 3 3 4 4
1 1 1 1 1 1 1 1 1 1 1 1 1 1 1 1 1 2 1 1 1 1 1 1 1 1 1 1 1 3 2 2 2 4 4 3 3 2 3 3 3 3 4
Wind_Direction
185 187 188 190 190 195 207 213 215 220 219 221 224 225 227 229 229 228 231 224 223 223 221 218 222 231 229 225 230 233 234 234 245 246 215 189 207 241 203 223 215 208 163
182 181 183 187 187 194 201 207 210 214 220 220 223 225 227 227 225 225 228 228 227 225 223 222 222 217 219 231 230 228 228 228 235 242 231 206 213 221 217 229 228 213 193
177 181 182 187 191 200 202 205 208 215 224 226 224 226 228 228 228 228 229 229 232 233 228 224 224 222 223 220 223 223 222 221 225 235 239 224 221 207 210 217 223 234 225
176 181 184 190 195 201 206 209 214 219 224 230 232 231 232 232 232 233 236 236 234 235 234 230 226 223 223 221 220 223 225 226 221 231 235 225 216 203 217 219 215 214 231
178 184 186 189 191 198 205 211 217 222 226 230 237 238 236 232 232 233 235 236 238 238 233 230 227 219 227 234 235 220 220 228 226 227 233 231 219 208 222 227 231 221 221
182 183 181 186 190 198 206 210 215 222 230 230 235 240 242 241 208 236 247 237 236 236 234 229 214 201 192 193 220 254 257 240 242 240 238 238 233 226 230 238 235 233 228
183 185 185 190 195 202 209 211 217 225 232 237 240 241 242 240 207 216 232 235 233 234 234 234 232 208 206 209 201 208 221 237 252 259 254 251 241 230 238 237 233 246 253
181 185 188 197 203 210 213 215 222 229 236 243 247 249 246 233 204 212 226 232 237 234 229 228 230 225 214 216 219 220 223 221 226 234 245 251 251 244 230 239 241 235 232
178 187 195 205 209 215 221 224 230 238 243 245 247 249 250 240 213 211 223 232 227 228 228 226 226 225 199 220 226 227 229 226 211 214 245 261 283 257 256 247 232 234 231
195 203 206 212 217 225 231 234 233 236 238 238 240 247 252 250 222 212 219 233 224 222 218 218 218 223 192 207 228 230 231 229 221 203 210 218 223 209 211 233 243 245 241
212 220 215 213 223 230 238 242 243 242 241 239 239 240 240 242 215 210 218 237 232 227 223 224 201 170 190 205 233 236 235 240 229 226 219 216 214 212 212 217 238 255 260
257 243 237 237 242 235 241 246 244 242 236 234 234 238 235 227 217 209 212 223 243 237 235 232 172 157 183 204 220 220 217 234 230 225 226 222 218 215 210 212 222 238 258
280 257 257 252 250 244 240 239 237 233 240 240 238 238 234 225 200 191 202 208 217 229 236 172 154 169 188 201 202 209 218 228 229 229 231 228 230 222 215 206 207 215 224
260 253 248 244 241 240 248 243 247 249 249 248 246 247 241 227 229 215 208 200 198 209 214 165 168 190 214 213 197 209 225 234 236 236 241 232 223 213 218 221 218 210 217
262 254 250 243 241 243 248 266 263 269 282 272 265 258 252 246 234 256 254 228 223 206 205 212 207 197 205 210 214 216 223 219 226 232 230 226 225 225 222 220 227 225 226
261 259 254 250 239 238 240 247 248 265 261 263 277 279 273 250 187 195 217 222 204 186 206 217 214 211 216 219 222 219 223 233 238 241 237 229 226 227 222 220 225 229 228
269 267 261 255 245 242 250 256 255 227 184 194 215 217 222 204 196 199 198 192 191 182 211 224 225 223 225 226 228 230 225 223 232 237 238 237 237 231 223 219 220 227 231
271 265 261 263 257 246 253 258 261 265 248 212 176 175 173 166 171 178 165 149 171 197 221 224 232 235 232 234 232 234 234 222 223 233 234 239 240 237 232 231 228 232 230
286 284 277 279 273 267 269 268 270 270 271 250 187 142 163 164 162 177 178 202 212 211 218 222 231 238 237 233 240 239 238 230 225 228 226 235 237 232 231 234 230 222 240
279 300 295 287 278 281 275 279 285 280 277 263 234 213 172 177 180 172 198 219 227 218 219 223 232 248 253 241 239 243 240 234 223 221 225 226 230 233 229 232 239 233 231
296 284 247 276 287 289 283 284 292 293 287 278 281 360 210 227 212 194 193 210 224 230 232 234 233 230 240 239 242 246 250 244 232 225 226 231 232 231 231 227 228 240 241
298 287 273 277 286 294 298 295 292 284 273 263 260 154 171 235 232 193 170 182 202 220 226 239 246 249 263 266 257 251 245 248 241 231 234 237 232 234 237 237 236 236 242
277 271 271 272 263 227 245 259 263 262 280 273 256 206 178 227 220 181 177 188 199 211 223 226 240 250 243 245 259 266 265 261 261 259 248 239 236 237 239 234 233 236 235
269 274 281 286 290 282 269 256 246 235 234 271 318 315 202 179 256 208 203 190 210 221 215 215 224 243 256 262 253 256 298 319 295 259 256 259 254 249 246 244 241 239 238
257 257 269 289 289 297 299 296 284 261 240 245 198 235 246 212 231 230 215 202 210 205 185 191 189 176 185 245 277 356 42 23 348 316 257 254 257 265 264 259 256 251 248
284 284 283 285 296 300 298 300 300 293 286 276 259 257 258 243 234 230 220 206 198 187 178 172 162 167 206 229 46 58 65 42 355 319 286 262 259 262 271 264 263 263 258